Weather History for Marianna, FL

Change the Weather History Date:

Tuesday, September 17, 2013

  Actual Average Record
Temperature  
Mean Temperature 83 °F 78 °F  
Max Temperature 93 °F 88 °F 97 °F (1997)
Min Temperature 73 °F 68 °F 52 °F (2001)
Degree Days  
Heating Degree Days 0    
Month to date heating degree days 0  
Since 1 July heating degree days 0  
Cooling Degree Days 18    
Month to date cooling degree days 286  
Year to date cooling degree days 2149  
Growing Degree Days 32 (Base 50)    
Moisture  
Dew Point 72 °F    
Average Humidity 72    
Maximum Humidity 94    
Minimum Humidity 49    
Precipitation  
Precipitation 0.00 in 0.12 in 2.28 in (2012)
Month to date precipitation 0.57 2.21  
Year to date precipitation 51.25 40.54  
Sea Level Pressure  
Sea Level Pressure 30.04 in    
Wind  
Wind Speed 8 mph (ENE)    
Max Wind Speed 17 mph    
Max Gust Speed 26 mph    
Visibility 10 miles    
Events      
T = Trace of Precipitation, MM = Missing Value Source: NWS Daily Summary

Daily Weather History Graph

Daily Weather History Graph

Search for Another Location

Airport:

Trip Planner

Search our weather history database for the weather conditions in past years. The results will help you decide how hot, cold, wet, or windy it might be!

Date:

Astronomy

Sep. 17, 2013 Rise Set
Actual Time 6:26 AM CDT 6:43 PM CDT
Civil Twilight 6:02 AM CDT 7:07 PM CDT
Nautical Twilight 5:33 AM CDT 7:35 PM CDT
Astronomical Twilight 5:05 AM CDT 8:04 PM CDT
Moon 5:26 PM CDT (9/17) 4:25 AM CDT (9/17)
Length of Visible Light 13h 05m
Length of Day
12h 17m
Waxing Gibbous, 96% of the Moon is Illuminated
Sep 17
Waxing Gibbous
Sep 19
Full
Sep 26
Last Quarter
Oct 4
New
Oct 11
First Quarter

Hourly Weather History & Observations

Time (CDT) Temp. Heat Index Dew Point Humidity Pressure Visibility Wind Dir Wind Speed Gust Speed Precip Events Conditions
12:53 AM 75.0 °F - 72.0 °F 90% 30.04 in 10.0 mi Calm Calm - N/A   Clear
1:53 AM 75.0 °F - 73.0 °F 94% 30.03 in 10.0 mi NNW 3.5 mph - N/A   Overcast
2:53 AM 73.9 °F - 72.0 °F 93% 30.02 in 10.0 mi Calm Calm - N/A   Scattered Clouds
3:53 AM 73.0 °F - 72.0 °F 96% 30.02 in 10.0 mi Calm Calm - N/A   Clear
4:53 AM 73.9 °F - 72.0 °F 93% 30.03 in 10.0 mi Calm Calm - N/A   Mostly Cloudy
5:53 AM 73.0 °F - 71.1 °F 93% 30.04 in 10.0 mi NE 4.6 mph - N/A   Scattered Clouds
6:53 AM 73.0 °F - 71.1 °F 93% 30.06 in 10.0 mi NE 6.9 mph - N/A   Mostly Cloudy
7:53 AM 75.0 °F - 72.0 °F 90% 30.07 in 10.0 mi East 5.8 mph - N/A   Scattered Clouds
8:43 AM 78.8 °F - 73.4 °F 83% 30.08 in 10.0 mi ENE 6.9 mph - N/A   Scattered Clouds
8:53 AM 79.0 °F - 73.0 °F 82% 30.08 in 10.0 mi NE 8.1 mph - N/A   Mostly Cloudy
9:53 AM 82.9 °F 88.8 °F 73.0 °F 72% 30.09 in 10.0 mi ESE 5.8 mph - N/A   Clear
10:53 AM 86.0 °F 93.8 °F 73.9 °F 67% 30.09 in 10.0 mi Variable 6.9 mph - N/A   Clear
11:53 AM 89.1 °F 97.0 °F 73.0 °F 59% 30.07 in 10.0 mi East 6.9 mph - N/A   Clear
12:53 PM 90.0 °F 96.4 °F 71.1 °F 54% 30.05 in 10.0 mi East 10.4 mph - N/A   Scattered Clouds
1:53 PM 91.0 °F 98.2 °F 72.0 °F 53% 30.02 in 10.0 mi East 9.2 mph 20.7 mph N/A   Partly Cloudy
2:53 PM 91.9 °F 97.4 °F 70.0 °F 48% 30.00 in 10.0 mi ESE 12.7 mph 19.6 mph N/A   Clear
3:53 PM 89.1 °F 95.0 °F 71.1 °F 55% 29.99 in 10.0 mi ENE 11.5 mph - N/A   Partly Cloudy
4:53 PM 91.0 °F 95.6 °F 69.1 °F 48% 29.98 in 10.0 mi ENE 12.7 mph - N/A   Clear
5:53 PM 88.0 °F 92.9 °F 70.0 °F 55% 29.99 in 10.0 mi NE 9.2 mph - N/A   Clear
6:53 PM 82.9 °F 87.5 °F 71.1 °F 67% 30.00 in 10.0 mi ENE 6.9 mph - N/A   Clear
7:08 PM 82.4 °F 87.2 °F 71.6 °F 70% 30.01 in 10.0 mi East 5.8 mph - N/A   Scattered Clouds
7:53 PM 82.0 °F 86.3 °F 71.1 °F 69% 30.03 in 10.0 mi ENE 11.5 mph - N/A   Partly Cloudy
8:53 PM 81.0 °F 84.9 °F 71.1 °F 72% 30.06 in 10.0 mi ENE 11.5 mph - N/A   Partly Cloudy
9:53 PM 79.0 °F - 71.1 °F 77% 30.06 in 10.0 mi East 12.7 mph - N/A   Clear
10:53 PM 78.1 °F - 69.1 °F 74% 30.07 in 10.0 mi East 10.4 mph - N/A   Clear
11:53 PM 75.9 °F - 69.1 °F 79% 30.08 in 10.0 mi East 11.5 mph 18.4 mph N/A   Partly Cloudy